Time,TemperatureF,DewpointF,PressureIn,WindDirection,WindDirectionDegrees,WindSpeedMPH,WindSpeedGustMPH,Humidity,HourlyPrecipIn,Conditions,Clouds,dailyrainin,SoftwareType,DateUTC
2013-03-19 00:03:00,28.0,25.0,30.08,NNE,23,3.0,9.0,88,0.00,,,0.00,,2013-03-19 04:03:00,
2013-03-19 00:13:00,28.0,25.0,30.08,NNE,23,3.0,9.0,88,0.00,,,0.00,,2013-03-19 04:13:00,
2013-03-19 00:23:00,28.0,25.0,30.06,SE,126,1.0,11.0,88,0.00,,,0.00,,2013-03-19 04:23:00,
2013-03-19 00:33:00,28.0,25.0,30.06,South,178,2.0,10.0,88,0.00,,,0.00,,2013-03-19 04:33:00,
2013-03-19 00:43:00,28.0,25.0,30.06,South,178,2.0,10.0,88,0.00,,,0.00,,2013-03-19 04:43:00,
2013-03-19 00:53:00,28.0,25.0,30.04,SE,125,3.0,7.0,88,0.00,,,0.00,,2013-03-19 04:53:00,
2013-03-19 01:02:00,28.0,25.0,30.03,East,87,6.0,14.0,88,0.00,,,0.00,,2013-03-19 05:02:00,
2013-03-19 01:12:00,28.0,25.0,30.03,East,87,6.0,14.0,88,0.00,,,0.00,,2013-03-19 05:12:00,
2013-03-19 01:22:00,28.0,25.0,30.02,SE,128,3.0,14.0,88,0.00,,,0.00,,2013-03-19 05:22:00,
2013-03-19 01:32:00,28.0,25.0,30.02,SE,132,4.0,10.0,88,0.00,,,0.00,,2013-03-19 05:32:00,
2013-03-19 01:43:00,28.0,25.0,30.02,SE,132,4.0,10.0,88,0.00,,,0.00,,2013-03-19 05:43:00,
2013-03-19 01:52:00,28.0,25.0,29.99,ENE,65,4.0,11.0,88,0.00,,,0.00,,2013-03-19 05:52:00,
2013-03-19 02:02:00,28.0,25.0,29.97,East,96,4.0,13.0,88,0.00,,,0.00,,2013-03-19 06:02:00,
2013-03-19 02:12:00,28.0,25.0,29.97,East,96,4.0,13.0,88,0.00,,,0.00,,2013-03-19 06:12:00,
2013-03-19 02:22:00,28.0,25.0,29.96,SSE,160,3.0,11.0,89,0.00,,,0.00,,2013-03-19 06:22:00,
2013-03-19 02:32:00,29.0,26.0,29.96,SE,146,3.0,10.0,89,0.00,,,0.00,,2013-03-19 06:32:00,
2013-03-19 02:42:00,29.0,26.0,29.96,SE,146,3.0,10.0,89,0.00,,,0.00,,2013-03-19 06:42:00,
2013-03-19 02:52:00,29.0,26.0,29.95,East,82,3.0,11.0,89,0.00,,,0.00,,2013-03-19 06:52:00,
2013-03-19 03:02:00,30.0,27.0,29.95,South,176,2.0,9.0,89,0.00,,,0.00,,2013-03-19 07:02:00,
2013-03-19 03:12:00,30.0,27.0,29.95,South,176,2.0,9.0,89,0.00,,,0.00,,2013-03-19 07:12:00,
2013-03-19 03:22:00,30.0,27.0,29.95,SW,226,0.0,8.0,89,0.00,,,0.00,,2013-03-19 07:22:00,
2013-03-19 03:32:00,30.0,27.0,29.95,ENE,61,3.0,10.0,89,0.00,,,0.00,,2013-03-19 07:32:00,
2013-03-19 03:42:00,30.0,27.0,29.95,ENE,61,3.0,10.0,89,0.00,,,0.00,,2013-03-19 07:42:00,
2013-03-19 03:53:00,30.0,27.0,29.93,SSE,161,1.0,12.0,89,0.00,,,0.00,,2013-03-19 07:53:00,
2013-03-19 04:03:00,30.0,27.0,29.92,SSE,152,1.0,12.0,89,0.00,,,0.00,,2013-03-19 08:03:00,
2013-03-19 04:12:00,30.0,27.0,29.92,SSE,152,1.0,12.0,89,0.00,,,0.00,,2013-03-19 08:12:00,
2013-03-19 04:22:00,30.0,27.0,29.90,NE,42,3.0,11.0,89,0.00,,,0.00,,2013-03-19 08:22:00,
2013-03-19 04:32:00,30.0,27.0,29.90,SE,126,2.0,8.0,89,0.00,,,0.00,,2013-03-19 08:32:00,
2013-03-19 04:42:00,30.0,27.0,29.90,SE,126,2.0,8.0,89,0.00,,,0.00,,2013-03-19 08:42:00,
2013-03-19 04:52:00,30.0,27.0,29.90,ENE,57,2.0,18.0,89,0.00,,,0.00,,2013-03-19 08:52:00,
2013-03-19 05:02:00,30.0,27.0,29.88,SSE,165,1.0,12.0,89,0.00,,,0.00,,2013-03-19 09:02:00,
2013-03-19 05:12:00,30.0,27.0,29.88,SSE,165,1.0,12.0,89,0.00,,,0.00,,2013-03-19 09:12:00,
2013-03-19 05:22:00,30.0,27.0,29.88,South,186,2.0,9.0,89,0.00,,,0.00,,2013-03-19 09:22:00,
2013-03-19 05:32:00,30.0,27.0,29.88,ENE,77,3.0,13.0,89,0.00,,,0.00,,2013-03-19 09:32:00,
2013-03-19 05:43:00,30.0,27.0,29.88,ENE,77,3.0,13.0,89,0.00,,,0.00,,2013-03-19 09:43:00,
2013-03-19 05:53:00,30.0,27.0,29.87,SE,128,5.0,13.0,89,0.00,,,0.00,,2013-03-19 09:53:00,
2013-03-19 06:03:00,30.0,27.0,29.85,NNE,25,4.0,14.0,89,0.00,,,0.00,,2013-03-19 10:03:00,
2013-03-19 06:13:00,30.0,27.0,29.85,NNE,25,4.0,14.0,89,0.00,,,0.00,,2013-03-19 10:13:00,
2013-03-19 06:23:00,30.0,27.0,29.85,ESE,123,4.0,13.0,89,0.00,,,0.00,,2013-03-19 10:23:00,
2013-03-19 06:33:00,30.0,27.0,29.85,North,10,3.0,13.0,89,0.00,,,0.00,,2013-03-19 10:33:00,
2013-03-19 06:42:00,30.0,27.0,29.85,North,10,3.0,13.0,89,0.00,,,0.00,,2013-03-19 10:42:00,
2013-03-19 06:53:00,30.0,27.0,29.84,SE,131,4.0,9.0,89,0.00,,,0.00,,2013-03-19 10:53:00,
2013-03-19 07:03:00,30.0,27.0,29.83,East,96,2.0,10.0,89,0.00,,,0.00,,2013-03-19 11:03:00,
2013-03-19 07:12:00,30.0,27.0,29.83,East,96,2.0,10.0,89,0.00,,,0.00,,2013-03-19 11:12:00,
2013-03-19 07:22:00,30.0,27.0,29.82,NNE,25,5.0,14.0,89,0.00,,,0.00,,2013-03-19 11:22:00,
2013-03-19 07:33:00,30.0,27.0,29.81,ENE,69,4.0,13.0,89,0.00,,,0.00,,2013-03-19 11:33:00,
2013-03-19 07:43:00,30.0,27.0,29.81,ENE,69,4.0,13.0,89,0.00,,,0.00,,2013-03-19 11:43:00,
2013-03-19 07:53:00,30.0,27.0,29.81,East,96,2.0,11.0,89,0.00,,,0.00,,2013-03-19 11:53:00,
2013-03-19 08:02:00,30.0,27.0,29.81,East,79,1.0,14.0,89,0.00,,,0.00,,2013-03-19 12:02:00,
2013-03-19 08:12:00,30.0,27.0,29.81,North,5,3.0,10.0,89,0.00,,,0.00,,2013-03-19 12:12:00,
2013-03-19 08:22:00,30.0,27.0,29.81,North,5,3.0,10.0,89,0.00,,,0.00,,2013-03-19 12:22:00,
2013-03-19 08:33:00,30.0,27.0,29.82,ENE,58,2.0,7.0,89,0.00,,,0.00,,2013-03-19 12:33:00,
2013-03-19 08:42:00,30.0,27.0,29.82,ENE,58,2.0,7.0,89,0.00,,,0.00,,2013-03-19 12:42:00,
2013-03-19 08:52:00,30.0,27.0,29.81,ESE,117,2.0,9.0,89,0.00,,,0.00,,2013-03-19 12:52:00,
2013-03-19 09:02:00,30.0,27.0,29.80,NNE,13,5.0,11.0,90,0.00,,,0.00,,2013-03-19 13:02:00,
2013-03-19 09:12:00,30.0,27.0,29.80,NNE,13,5.0,11.0,90,0.00,,,0.00,,2013-03-19 13:12:00,
2013-03-19 09:22:00,30.0,27.0,29.80,North,11,4.0,12.0,90,0.00,,,0.00,,2013-03-19 13:22:00,
2013-03-19 09:33:00,30.0,27.0,29.79,SSE,155,4.0,11.0,90,0.00,,,0.00,,2013-03-19 13:33:00,
2013-03-19 09:42:00,30.0,27.0,29.79,SSE,155,4.0,11.0,90,0.00,,,0.00,,2013-03-19 13:42:00,
2013-03-19 09:53:00,30.0,27.0,29.79,NNW,337,3.0,10.0,90,0.00,,,0.00,,2013-03-19 13:53:00,
2013-03-19 10:02:00,31.0,28.0,29.77,SE,140,5.0,11.0,90,0.00,,,0.00,,2013-03-19 14:02:00,
2013-03-19 10:12:00,31.0,28.0,29.77,SE,140,5.0,11.0,90,0.00,,,0.00,,2013-03-19 14:12:00,
2013-03-19 10:22:00,31.0,28.0,29.75,SE,125,3.0,12.0,90,0.00,,,0.00,,2013-03-19 14:22:00,
2013-03-19 10:32:00,31.0,28.0,29.75,ESE,122,2.0,14.0,90,0.00,,,0.00,,2013-03-19 14:32:00,
2013-03-19 10:42:00,31.0,28.0,29.75,ESE,122,2.0,14.0,90,0.00,,,0.00,,2013-03-19 14:42:00,
2013-03-19 10:53:00,32.0,29.0,29.76,NE,43,2.0,7.0,90,0.00,,,0.00,,2013-03-19 14:53:00,
2013-03-19 11:02:00,32.0,29.0,29.75,ENE,71,1.0,7.0,90,0.00,,,0.00,,2013-03-19 15:02:00,
2013-03-19 11:12:00,32.0,29.0,29.75,ENE,71,1.0,7.0,90,0.00,,,0.00,,2013-03-19 15:12:00,
2013-03-19 11:22:00,32.0,29.0,29.74,ENE,66,2.0,8.0,90,0.00,,,0.00,,2013-03-19 15:22:00,
2013-03-19 11:34:00,32.0,29.0,29.77,NW,323,1.0,4.0,90,0.00,,,0.00,,2013-03-19 15:34:00,
2013-03-19 11:54:00,32.0,29.0,29.75,NE,45,1.0,6.0,90,0.02,,,0.02,,2013-03-19 15:54:00,
2013-03-19 12:04:00,32.0,29.0,29.77,WNW,296,1.0,5.0,90,0.05,,,0.05,,2013-03-19 16:04:00,
2013-03-19 12:13:00,32.0,29.0,29.77,WNW,296,1.0,5.0,90,0.05,,,0.05,,2013-03-19 16:13:00,
2013-03-19 12:24:00,33.0,30.0,29.77,NNW,333,1.0,4.0,90,0.08,,,0.08,,2013-03-19 16:24:00,
2013-03-19 12:34:00,33.0,30.0,29.78,NW,322,0.0,3.0,90,0.09,,,0.09,,2013-03-19 16:34:00,
2013-03-19 12:44:00,33.0,30.0,29.78,NW,322,0.0,3.0,90,0.09,,,0.09,,2013-03-19 16:44:00,
2013-03-19 12:54:00,33.0,30.0,29.76,NNE,15,1.0,4.0,90,0.07,,,0.09,,2013-03-19 16:54:00,
2013-03-19 13:03:00,33.0,30.0,29.74,North,351,2.0,4.0,90,0.05,,,0.10,,2013-03-19 17:03:00,
2013-03-19 13:13:00,33.0,30.0,29.74,NE,37,1.0,5.0,90,0.03,,,0.11,,2013-03-19 17:13:00,
2013-03-19 13:23:00,33.0,30.0,29.74,NE,37,1.0,5.0,90,0.03,,,0.11,,2013-03-19 17:23:00,
2013-03-19 13:34:00,33.0,30.0,29.72,NNW,331,0.0,16.0,90,0.02,,,0.11,,2013-03-19 17:34:00,
2013-03-19 13:44:00,33.0,30.0,29.72,NNW,331,0.0,16.0,90,0.02,,,0.11,,2013-03-19 17:44:00,
2013-03-19 13:53:00,34.0,31.0,29.72,NW,313,1.0,4.0,90,0.03,,,0.12,,2013-03-19 17:53:00,
2013-03-19 14:03:00,36.0,33.0,29.70,NNW,348,2.0,9.0,90,0.03,,,0.13,,2013-03-19 18:03:00,
2013-03-19 14:13:00,36.0,33.0,29.70,NNW,348,2.0,9.0,90,0.03,,,0.13,,2013-03-19 18:13:00,
2013-03-19 14:23:00,36.0,33.0,29.69,NNW,339,2.0,8.0,88,0.06,,,0.17,,2013-03-19 18:23:00,
2013-03-19 14:33:00,36.0,33.0,29.69,NNE,15,1.0,6.0,87,0.10,,,0.21,,2013-03-19 18:33:00,
2013-03-19 14:53:00,36.0,33.0,29.69,NW,325,1.0,4.0,87,0.12,,,0.24,,2013-03-19 18:53:00,
2013-03-19 15:02:00,36.0,33.0,29.68,NW,317,3.0,5.0,87,0.14,,,0.27,,2013-03-19 19:02:00,
2013-03-19 15:12:00,36.0,33.0,29.68,NW,317,3.0,5.0,87,0.14,,,0.27,,2013-03-19 19:12:00,
2013-03-19 15:22:00,37.0,33.0,29.68,NNW,332,1.0,5.0,86,0.13,,,0.30,,2013-03-19 19:22:00,
2013-03-19 15:33:00,37.0,33.0,29.68,NNW,335,1.0,4.0,86,0.12,,,0.33,,2013-03-19 19:33:00,
2013-03-19 15:43:00,37.0,33.0,29.68,NNW,335,1.0,4.0,86,0.12,,,0.33,,2013-03-19 19:43:00,
2013-03-19 15:53:00,36.0,32.0,29.68,North,355,1.0,6.0,86,0.10,,,0.35,,2013-03-19 19:53:00,
2013-03-19 16:03:00,36.0,33.0,29.70,NNW,329,327.0,327.0,87,-99.99,,,-99.99,,2013-03-19 20:03:00,
2013-03-19 16:12:00,36.0,33.0,29.70,NW,323,1.0,5.0,87,0.09,,,0.39,,2013-03-19 20:12:00,
2013-03-19 16:22:00,36.0,33.0,29.70,NW,323,1.0,5.0,87,0.09,,,0.39,,2013-03-19 20:22:00,
2013-03-19 16:33:00,36.0,33.0,29.70,NW,309,1.0,5.0,88,0.07,,,0.40,,2013-03-19 20:33:00,
2013-03-19 16:43:00,36.0,33.0,29.70,NW,309,1.0,5.0,88,0.07,,,0.40,,2013-03-19 20:43:00,
2013-03-19 16:53:00,35.0,32.0,29.70,WNW,298,1.0,5.0,88,0.07,,,0.42,,2013-03-19 20:53:00,
2013-03-19 17:02:00,36.0,33.0,29.69,NW,321,2.0,5.0,88,0.06,,,0.43,,2013-03-19 21:02:00,
2013-03-19 17:12:00,36.0,33.0,29.70,NW,310,1.0,4.0,88,0.05,,,0.44,,2013-03-19 21:12:00,
2013-03-19 17:23:00,36.0,33.0,29.70,NW,310,1.0,4.0,88,0.05,,,0.44,,2013-03-19 21:23:00,
2013-03-19 17:34:00,36.0,33.0,29.69,NNW,335,1.0,4.0,88,0.06,,,0.46,,2013-03-19 21:34:00,
2013-03-19 17:43:00,36.0,33.0,29.69,NNW,335,1.0,4.0,88,0.06,,,0.46,,2013-03-19 21:43:00,
2013-03-19 17:53:00,36.0,33.0,29.71,WNW,283,1.0,5.0,87,0.05,,,0.47,,2013-03-19 21:53:00,
2013-03-19 18:03:00,35.0,31.0,29.70,North,351,3.0,6.0,86,0.05,,,0.48,,2013-03-19 22:03:00,
2013-03-19 18:13:00,35.0,31.0,29.70,North,351,3.0,6.0,86,0.05,,,0.48,,2013-03-19 22:13:00,
2013-03-19 18:23:00,35.0,32.0,29.70,WNW,296,1.0,5.0,87,0.04,,,0.48,,2013-03-19 22:23:00,
2013-03-19 18:33:00,34.0,31.0,29.70,NW,304,2.0,7.0,87,0.03,,,0.49,,2013-03-19 22:33:00,
2013-03-19 18:43:00,34.0,30.0,29.70,NW,313,0.0,5.0,86,0.02,,,0.49,,2013-03-19 22:43:00,
2013-03-19 18:53:00,34.0,30.0,29.70,NW,313,0.0,5.0,86,0.02,,,0.49,,2013-03-19 22:53:00,
2013-03-19 19:03:00,34.0,31.0,29.71,WNW,299,1.0,5.0,87,0.02,,,0.50,,2013-03-19 23:03:00,
2013-03-19 19:12:00,34.0,31.0,29.71,WNW,299,1.0,5.0,87,0.02,,,0.50,,2013-03-19 23:12:00,
2013-03-19 19:22:00,33.0,30.0,29.71,West,280,1.0,4.0,87,0.02,,,0.50,,2013-03-19 23:22:00,
2013-03-19 19:32:00,33.0,30.0,29.72,West,281,0.0,1.0,87,0.01,,,0.50,,2013-03-19 23:32:00,
2013-03-19 19:42:00,33.0,30.0,29.72,West,281,0.0,1.0,87,0.01,,,0.50,,2013-03-19 23:42:00,
2013-03-19 19:53:00,32.0,29.0,29.72,West,281,0.0,0.0,87,0.01,,,0.50,,2013-03-19 23:53:00,
2013-03-19 20:03:00,32.0,29.0,29.75,WNW,300,1.0,4.0,88,0.00,,,0.50,,2013-03-20 00:03:00,
2013-03-19 20:13:00,32.0,29.0,29.75,WNW,300,1.0,4.0,88,0.00,,,0.50,,2013-03-20 00:13:00,
2013-03-19 20:22:00,33.0,30.0,29.74,NW,320,0.0,7.0,89,0.00,,,0.50,,2013-03-20 00:22:00,
2013-03-19 20:33:00,33.0,30.0,29.73,NW,320,0.0,0.0,89,0.00,,,0.50,,2013-03-20 00:33:00,
2013-03-19 20:42:00,33.0,30.0,29.73,NW,320,0.0,0.0,89,0.00,,,0.50,,2013-03-20 00:42:00,
2013-03-19 20:52:00,32.0,29.0,29.74,NW,320,0.0,1.0,89,0.00,,,0.50,,2013-03-20 00:52:00,
2013-03-19 21:03:00,32.0,29.0,29.75,NW,320,0.0,1.0,89,0.00,,,0.50,,2013-03-20 01:03:00,
2013-03-19 21:12:00,32.0,29.0,29.75,NW,320,0.0,1.0,89,0.00,,,0.50,,2013-03-20 01:12:00,
2013-03-19 21:22:00,32.0,29.0,29.76,NW,319,0.0,2.0,89,0.00,,,0.50,,2013-03-20 01:22:00,
2013-03-19 21:32:00,32.0,29.0,29.75,NNW,329,1.0,3.0,89,0.00,,,0.50,,2013-03-20 01:32:00,
2013-03-19 21:42:00,32.0,29.0,29.75,NNW,329,1.0,3.0,89,0.00,,,0.50,,2013-03-20 01:42:00,
2013-03-19 21:53:00,32.0,29.0,29.75,WNW,303,1.0,3.0,89,0.00,,,0.50,,2013-03-20 01:53:00,
2013-03-19 22:02:00,32.0,29.0,29.75,NW,309,0.0,2.0,89,0.00,,,0.50,,2013-03-20 02:02:00,
2013-03-19 22:12:00,32.0,29.0,29.75,NW,309,0.0,2.0,89,0.00,,,0.50,,2013-03-20 02:12:00,
2013-03-19 22:22:00,32.0,29.0,29.75,SW,234,0.0,2.0,90,0.00,,,0.50,,2013-03-20 02:22:00,
2013-03-19 22:32:00,32.0,29.0,29.75,WNW,296,0.0,3.0,90,0.00,,,0.50,,2013-03-20 02:32:00,
2013-03-19 22:42:00,32.0,29.0,29.75,WNW,296,0.0,3.0,90,0.00,,,0.50,,2013-03-20 02:42:00,
2013-03-19 22:53:00,32.0,29.0,29.75,WNW,300,1.0,3.0,90,0.00,,,0.50,,2013-03-20 02:53:00,
2013-03-19 23:02:00,32.0,29.0,29.76,WNW,299,2.0,7.0,89,0.00,,,0.50,,2013-03-20 03:02:00,
2013-03-19 23:12:00,32.0,28.0,29.75,WNW,303,2.0,9.0,85,0.00,,,0.50,,2013-03-20 03:12:00,
2013-03-19 23:22:00,32.0,28.0,29.75,WNW,303,2.0,9.0,85,0.00,,,0.50,,2013-03-20 03:22:00,
2013-03-19 23:34:00,33.0,27.0,29.75,NW,322,3.0,11.0,79,0.00,,,0.50,,2013-03-20 03:34:00,
2013-03-19 23:43:00,33.0,27.0,29.75,NW,322,3.0,11.0,79,0.00,,,0.50,,2013-03-20 03:43:00,
2013-03-19 23:53:00,32.0,26.0,29.75,WNW,296,4.0,10.0,77,0.00,,,0.50,,2013-03-20 03:53:00,